TimeCST,TemperatureF,Dew PointF,Humidity,Sea Level PressureIn,VisibilityMPH,Wind Direction,Wind SpeedMPH,Gust SpeedMPH,PrecipitationIn,Events,Conditions,WindDirDegrees,DateUTC
12:53 AM,39.9,34.0,79,30.26,10.0,North,4.6,-,N/A,,Clear,350,2012-11-14 06:53:00
1:53 AM,39.9,33.1,77,30.27,10.0,NNW,3.5,-,N/A,,Clear,340,2012-11-14 07:53:00
2:53 AM,39.0,33.1,79,30.28,10.0,NW,3.5,-,N/A,,Clear,310,2012-11-14 08:53:00
3:53 AM,39.0,33.1,79,30.27,10.0,North,5.8,-,N/A,,Clear,350,2012-11-14 09:53:00
4:53 AM,39.0,33.1,79,30.27,10.0,North,5.8,-,N/A,,Clear,350,2012-11-14 10:53:00
5:53 AM,37.9,33.1,83,30.27,10.0,North,5.8,-,N/A,,Clear,360,2012-11-14 11:53:00
6:53 AM,37.9,33.1,83,30.28,10.0,North,5.8,-,N/A,,Clear,10,2012-11-14 12:53:00
7:53 AM,43.0,35.1,74,30.30,10.0,North,6.9,-,N/A,,Clear,360,2012-11-14 13:53:00
8:53 AM,50.0,36.0,59,30.30,10.0,North,9.2,-,N/A,,Clear,360,2012-11-14 14:53:00
9:53 AM,53.1,37.9,57,30.30,10.0,NNE,4.6,-,N/A,,Clear,20,2012-11-14 15:53:00
10:53 AM,60.1,39.9,47,30.28,10.0,NNW,5.8,-,N/A,,Clear,340,2012-11-14 16:53:00
11:53 AM,62.1,37.0,39,30.25,10.0,Variable,4.6,-,N/A,,Clear,0,2012-11-14 17:53:00
12:53 PM,63.0,35.1,35,30.22,10.0,Variable,4.6,-,N/A,,Clear,0,2012-11-14 18:53:00
1:53 PM,64.9,36.0,34,30.21,10.0,North,9.2,-,N/A,,Clear,350,2012-11-14 19:53:00
2:53 PM,64.9,35.1,33,30.20,10.0,North,4.6,-,N/A,,Clear,350,2012-11-14 20:53:00
3:53 PM,63.0,36.0,37,30.21,10.0,NNW,5.8,-,N/A,,Clear,340,2012-11-14 21:53:00
4:53 PM,57.0,37.9,49,30.22,10.0,NNW,3.5,-,N/A,,Clear,340,2012-11-14 22:53:00
5:53 PM,48.0,39.9,74,30.24,10.0,Calm,Calm,-,N/A,,Clear,0,2012-11-14 23:53:00
6:53 PM,48.0,37.9,68,30.25,10.0,Calm,Calm,-,N/A,,Clear,0,2012-11-15 00:53:00
7:53 PM,43.0,37.0,80,30.25,10.0,Calm,Calm,-,N/A,,Clear,0,2012-11-15 01:53:00
8:53 PM,41.0,37.0,86,30.26,10.0,Calm,Calm,-,N/A,,Clear,0,2012-11-15 02:53:00
9:53 PM,39.9,37.0,89,30.26,10.0,NNW,3.5,-,N/A,,Clear,340,2012-11-15 03:53:00
10:53 PM,42.1,37.0,82,30.25,10.0,Calm,Calm,-,N/A,,Clear,0,2012-11-15 04:53:00
11:53 PM,42.1,37.0,82,30.25,10.0,Calm,Calm,-,N/A,,Clear,0,2012-11-15 05:53:00